Flag for Argentina Weather past 2 weeks in Comodoro Rivadavia, Chubut, Argentina

Now
46 °F

Clear.


Feels Like: 44 °F
Forecast: 47 / 56 °F
Wind: 6 mph from Northwest

Location: Comodoro Rivadavia Aerodrome

Current Time: Jul 29, 2014 at 10:18:41 PM

Latest Report: Jul 29, 2014 at 10:00 PM


Visibility: 10 mi

Pressure: 29.89 "Hg

Humidity: 62%

Dew point: 34 °F

Location of Comodoro RivadaviaLocation

Historic Weather in Comodoro Rivadavia — Graph

°F

Comodoro Rivadavia temperature yesterday

Maximum temperature yesterday: 52 °F (at 3:00 PM)
Minimum temperature yesterday: 37 °F (at 12:00 AM)
Average temperature yesterday: 45 °F

Past Weeks' High & Low Weather Summary

 TemperatureHumidityPressure
High59 °F (Jul 18, 3:00 PM)100% (Jul 19, 5:00 AM)30.36 "Hg (Jul 19, 5:00 AM)
Low23 °F (Jul 26, 3:00 AM)20% (Jul 23, 4:00 PM)29.56 "Hg (Jul 28, 6:00 AM)
Average44 °F66%29.94 "Hg
* Reported Jul 14 9:00 PM — Jul 29 9:00 PM, Comodoro Rivadavia, Weather by CustomWeather, © 2014

Note: Actual official high and low records may vary slightly from our data, if they occured in-between our weather recording intervals... More about our weather records

Advertising

Comodoro Rivadavia weather history for previous 24 hours

 ConditionsComfort  
Time TempWeatherWind HumidityBarometerVisibility
9:00 PM
Jul 29
48 °FClear.9 mph66%29.89 "Hg10 mi
8:00 PM41 °FClear.5 mph81%29.86 "Hg10 mi
7:00 PM46 °FClear.8 mph71%29.83 "Hg10 mi
6:00 PM52 °FPassing clouds.5 mph62%29.83 "HgN/A
5:00 PM55 °FPassing clouds.3 mph51%29.80 "HgN/A
4:00 PM57 °FPassing clouds.6 mph48%29.77 "HgN/A
3:00 PM57 °FSunny.3 mph51%29.77 "Hg10 mi
2:00 PM55 °FPassing clouds.2 mph55%29.80 "HgN/A
1:00 PM55 °FSunny.7 mph51%29.80 "Hg10 mi
12:00 PM50 °FSunny.7 mph58%29.83 "Hg10 mi
11:00 AM46 °FSunny.9 mph62%29.83 "Hg10 mi
10:00 AM43 °FSunny.9 mph66%29.80 "Hg10 mi
9:00 AM45 °FSunny.2 mph61%29.83 "Hg10 mi
8:00 AM41 °FSunny.7 mph76%29.80 "Hg10 mi
7:00 AM43 °FClear.8 mph66%29.80 "Hg10 mi
6:00 AM43 °FClear.3 mph71%29.77 "Hg10 mi
5:00 AM45 °FClear.5 mph61%29.77 "Hg10 mi
4:00 AM45 °FClear.10 mph61%29.77 "Hg10 mi
3:00 AM46 °FClear.9 mph57%29.77 "Hg10 mi
2:00 AM46 °FClear.12 mph57%29.77 "Hg10 mi
1:00 AM48 °FClear.3 mph58%29.80 "Hg10 mi
12:00 AM48 °FClear.17 mph58%29.77 "Hg10 mi
11:00 PM
Jul 28
48 °FClear.13 mph62%29.77 "Hg10 mi
10:00 PM48 °FClear.13 mph58%29.74 "Hg10 mi
Weather by CustomWeather, © 2014

See weather overviewHow to use our weather pages